FLOCK JH

Last updated on May 24, 2016, 9:36 a.m. UTC

1 41487U 98067JH  16145.17471542  .00024196  00000-0  35386-3 0  9992
2 41487  51.6439 177.7962 0003480  54.5158  22.6761 15.55470408   942

Satellite is not in orbit.